Wind_Speed
21 19 16 14 7 6 10 7 11 5 6 18 20 11 11 11 9 10 9 12 11 9 5 2 1 2 3 4 5 5 6 7 7 5 4 3 3 1 1 3 4 5 5 4 3 4 4 4 5
22 20 17 14 10 14 12 10 9 9 11 13 19 19 13 9 11 11 9 16 12 7 4 2 1 0 2 3 4 5 6 8 9 8 5 4 3 2 3 4 5 5 4 4 4 5 5 6 7
22 21 17 10 15 20 11 10 8 13 10 9 12 16 15 13 12 11 9 17 12 7 3 4 4 2 1 3 3 3 5 8 9 9 8 4 2 3 3 3 3 3 3 3 5 5 6 7 8
23 22 21 18 20 14 14 6 13 13 11 10 12 9 15 16 19 20 15 13 8 8 6 6 8 4 2 1 2 3 4 7 9 9 9 8 3 2 2 3 3 3 3 3 4 5 6 7 8
23 24 19 19 24 21 17 10 16 15 13 11 12 7 12 15 15 19 21 21 21 17 14 12 9 6 4 3 2 2 4 6 8 9 9 9 7 3 1 1 1 1 2 2 4 5 5 5 7
23 23 19 27 25 20 23 22 20 19 16 14 12 15 13 13 14 16 22 21 19 16 15 13 10 8 8 6 4 3 2 4 6 8 9 8 8 7 5 3 2 1 1 2 3 3 4 6 7
23 22 26 25 23 21 24 23 19 18 21 17 17 11 13 17 14 16 18 19 19 18 18 18 15 12 12 10 7 5 3 3 6 8 9 9 7 6 5 4 4 3 3 4 5 5 7 8 9
27 20 22 24 27 27 23 23 22 20 16 24 21 14 12 19 18 16 16 18 18 19 20 20 17 16 15 13 11 8 6 5 6 6 8 8 8 7 6 4 3 3 4 6 7 8 9 10 11
26 20 26 27 23 23 27 24 25 24 22 22 23 21 20 21 19 20 18 17 19 21 22 22 21 18 16 15 14 12 9 7 7 8 8 8 8 8 8 6 6 6 7 8 9 11 11 12 12
28 23 25 22 24 21 22 23 18 19 23 24 24 24 23 23 22 22 22 20 21 22 22 21 21 17 18 17 14 16 14 11 9 10 10 10 10 9 10 10 10 9 9 10 11 13 13 14 15
27 28 22 29 29 29 28 30 29 28 24 27 25 26 30 26 25 24 24 24 23 23 21 22 23 24 24 22 21 19 18 16 13 13 12 13 12 12 12 12 12 12 12 13 14 16 17 17 18
27 27 29 27 28 30 28 26 31 32 31 22 32 33 32 28 27 27 27 27 25 23 22 22 21 22 22 22 19 23 21 19 17 16 15 15 15 15 15 14 14 14 15 16 17 18 19 20 20
23 24 27 29 30 30 32 35 34 34 33 35 34 36 34 30 30 27 28 30 28 24 20 21 21 21 20 28 20 27 22 24 20 18 17 17 18 18 19 16 16 15 16 17 19 19 20 21 22
21 21 24 27 29 31 34 35 34 34 30 37 37 40 38 36 32 31 29 28 29 27 25 24 22 22 22 20 22 23 24 23 22 22 20 19 20 20 20 19 18 18 18 18 19 20 21 22 23
19 22 23 24 26 29 29 35 38 30 32 36 35 40 42 43 39 37 33 29 27 29 29 27 26 25 24 23 25 23 21 20 22 23 24 22 21 22 21 19 20 19 19 19 20 20 22 24 23
15 17 14 17 19 22 25 31 15 19 24 32 37 40 44 44 45 43 40 37 33 30 31 31 30 29 28 27 26 24 24 24 24 25 24 25 24 23 22 19 19 19 19 19 19 21 23 23 21
15 12 13 15 17 18 22 21 20 21 29 33 27 30 40 44 46 46 46 44 40 37 35 32 32 32 33 33 30 28 28 27 27 28 27 28 25 23 21 19 18 17 18 18 20 20 20 20 20
9 11 12 13 10 20 27 32 31 32 33 35 35 37 39 36 48 47 46 46 45 42 39 36 34 33 31 35 34 32 32 32 33 31 28 27 24 22 20 18 17 16 17 19 19 19 19 19 20
19 17 15 15 20 27 33 41 36 37 40 39 39 41 40 42 42 48 50 48 48 46 42 39 36 33 31 31 32 33 33 31 33 31 27 26 23 21 19 16 16 14 17 17 18 20 20 21 21
22 21 22 21 19 22 27 48 42 43 45 45 43 41 40 40 42 44 45 48 49 47 44 41 38 34 31 29 32 33 31 30 30 30 27 25 23 19 17 15 14 14 14 16 19 22 23 23 23
20 21 20 21 20 25 29 48 33 18 30 34 38 38 41 42 42 40 44 46 46 48 45 41 34 33 32 31 33 32 31 30 30 29 27 23 21 18 16 14 13 12 14 17 20 22 24 24 24
20 18 18 17 13 10 3 17 26 23 28 32 35 31 27 29 40 39 39 45 47 43 45 42 34 33 34 33 32 30 29 27 29 25 23 23 21 18 16 14 12 12 15 18 20 23 24 25 26
14 16 11 11 15 17 25 11 31 20 25 23 13 18 24 23 29 28 36 39 45 42 41 40 35 33 33 32 30 29 30 30 29 25 23 23 21 18 16 13 12 14 17 19 22 24 27 28 29
14 10 12 14 12 11 34 22 36 37 30 21 18 7 15 20 27 29 28 37 41 46 42 39 36 34 32 30 29 29 31 29 28 25 24 23 20 19 16 13 14 16 19 21 24 27 30 32 33
14 7 3 5 8 9 11 15 38 26 20 20 23 23 16 20 22 27 29 34 40 46 44 41 37 35 31 27 27 28 29 24 25 22 21 20 20 18 16 15 16 18 21 24 28 31 33 35 36
17 18 8 7 10 13 13 15 26 28 25 19 15 20 25 22 21 26 29 30 39 43 44 41 37 35 29 27 26 27 27 28 23 23 22 23 21 18 17 17 18 21 24 28 31 34 37 39 39
9 23 20 26 32 19 28 35 28 34 28 33 27 27 23 27 23 22 28 27 38 41 42 39 38 34 30 26 26 28 27 29 25 25 26 24 21 19 19 19 21 24 27 31 35 37 40 42 42
23 8 9 12 6 18 16 21 24 20 14 15 20 21 19 20 20 29 30 27 37 39 39 39 37 34 30 26 27 29 28 27 27 27 24 22 21 20 20 21 24 28 31 35 38 40 43 44 44
19 28 22 19 18 8 14 24 24 20 16 20 23 29 20 18 21 23 31 29 36 42 40 35 36 34 30 27 28 29 33 28 28 27 25 24 22 22 22 24 27 31 35 38 41 43 45 45 44
21 24 25 21 17 14 18 38 27 24 23 27 26 26 27 22 24 22 33 30 33 42 40 36 35 32 28 26 28 31 28 28 27 26 25 24 23 23 25 27 31 35 38 41 42 45 46 45 45
Wind_Direction
249 251 254 265 265 238 242 243 225 239 235 228 228 224 216 201 197 220 223 211 209 197 166 124 357 342 347 357 6 11 13 12 2 350 324 313 315 301 209 176 184 180 174 184 188 203 217 222 229
249 253 255 256 243 241 245 233 232 228 230 226 226 230 228 228 224 210 209 209 208 198 175 147 230 350 354 350 3 12 13 15 15 5 344 322 308 292 219 194 196 192 190 201 215 221 228 233 242
247 250 253 241 240 238 250 241 219 231 225 222 212 222 225 222 221 220 231 196 196 184 215 215 211 196 351 342 347 11 16 13 14 18 12 350 293 249 237 220 230 230 234 237 249 253 256 256 257
247 249 249 238 238 238 233 245 221 215 221 214 208 199 212 214 221 219 237 217 219 209 233 279 260 219 206 257 326 351 10 15 12 15 21 22 9 247 236 231 233 241 251 257 263 261 257 258 260
241 242 236 241 242 239 232 208 207 209 211 210 209 209 203 207 208 213 218 209 212 233 238 224 222 230 229 231 274 317 350 9 11 12 16 22 37 55 195 239 254 265 270 275 274 272 274 277 275
234 228 232 235 242 240 244 237 230 222 225 216 216 216 215 208 210 210 207 219 223 212 212 217 220 236 237 235 242 267 321 355 5 7 11 19 27 41 72 99 95 46 339 302 292 290 301 293 288
233 231 236 242 244 240 248 238 231 230 233 232 227 223 225 221 216 214 216 220 222 221 219 220 218 224 233 233 237 249 264 322 347 357 2 7 14 21 37 53 55 40 354 327 314 312 301 292 290
232 230 236 236 239 246 246 242 237 235 231 232 229 231 226 223 221 219 222 226 230 234 232 230 229 220 224 230 232 235 247 284 315 332 345 353 355 358 356 360 348 328 319 315 314 308 301 297 295
234 228 234 236 241 240 245 249 245 238 233 227 227 218 217 222 224 222 223 229 234 237 240 237 233 230 225 229 233 236 238 250 281 302 318 329 339 340 335 325 316 317 317 315 311 306 305 299 294
229 229 241 240 237 243 240 239 232 233 229 225 226 222 216 217 220 222 221 225 233 236 235 236 237 234 234 231 241 243 243 251 263 281 293 305 316 322 321 319 313 308 309 308 310 309 303 299 295
230 233 239 249 250 251 247 247 243 237 233 225 221 220 220 214 222 224 222 221 225 234 235 235 232 222 234 245 231 247 246 252 260 272 283 291 297 303 306 309 311 310 311 309 312 306 302 300 300
235 241 239 248 252 252 251 251 246 240 239 232 221 222 222 221 222 223 223 224 224 227 232 234 237 234 232 246 232 252 249 249 258 268 278 285 290 290 293 300 303 307 305 306 303 300 300 300 299
244 244 249 253 254 253 253 254 253 246 236 236 228 224 223 226 227 228 226 227 228 227 230 236 239 241 233 238 236 245 252 252 253 263 274 283 286 287 287 292 295 299 296 297 299 300 300 298 297
245 248 252 255 259 260 258 258 256 249 239 240 234 231 230 230 228 228 229 232 231 229 230 234 235 239 245 245 248 247 251 252 253 261 269 277 283 284 285 286 288 289 293 296 298 299 299 298 298
249 255 256 254 261 267 270 265 262 265 256 252 240 238 236 234 235 235 233 231 234 232 233 238 239 239 243 245 246 249 253 256 255 257 265 272 279 282 281 282 285 285 290 294 297 299 300 299 297
263 263 266 264 261 269 266 264 269 264 261 249 246 240 238 238 238 240 239 237 234 237 238 239 243 244 244 248 250 253 257 257 257 258 262 269 276 281 280 280 280 284 288 292 296 301 301 301 301
255 249 251 271 274 266 267 269 273 263 255 253 247 243 241 238 237 237 237 239 237 236 240 241 242 246 248 246 247 253 257 259 260 262 263 267 274 278 277 278 275 279 288 293 299 304 304 306 306
247 241 252 252 268 275 269 267 269 269 264 258 255 249 245 238 235 236 235 237 239 238 238 243 249 252 251 244 243 247 252 259 263 263 263 267 271 273 273 272 272 279 287 295 305 308 311 309 307
257 261 262 262 272 281 278 276 273 272 269 266 259 255 252 246 237 234 233 233 237 239 239 242 247 251 250 241 240 245 253 257 260 260 260 263 265 264 265 261 268 280 293 305 313 314 312 310 309
259 262 267 277 274 274 284 278 276 276 273 274 271 264 260 254 250 242 237 234 235 237 240 243 246 251 246 237 240 244 251 250 254 255 254 255 256 255 251 256 267 283 299 311 313 314 314 311 307
255 256 266 270 280 279 290 288 297 287 277 274 270 266 260 259 254 243 240 238 234 233 236 240 241 247 243 233 241 246 244 248 252 252 251 248 250 243 243 249 265 284 301 310 314 318 317 313 309
264 260 262 270 279 279 304 290 293 288 280 279 275 272 267 258 254 249 240 236 235 233 233 233 231 241 239 230 239 241 249 253 257 252 246 243 237 233 235 246 265 286 302 310 317 321 321 318 316
244 271 271 261 263 279 264 250 279 285 289 280 272 279 275 267 258 246 239 234 232 229 230 228 228 235 224 226 233 237 244 247 247 239 235 234 226 227 235 247 269 288 300 308 316 320 322 322 319
263 260 263 264 259 250 260 230 277 277 278 278 276 243 287 257 243 245 235 227 224 224 224 218 222 221 219 228 233 240 247 248 235 230 229 221 220 224 237 253 272 287 298 307 314 318 321 321 320
227 236 257 236 207 244 282 224 249 274 265 272 267 286 253 254 246 230 224 219 218 220 218 212 218 214 220 226 235 242 238 228 224 225 223 219 219 229 242 258 275 288 299 307 313 317 319 320 319
220 212 219 252 259 283 275 240 243 271 267 254 275 283 266 261 247 232 222 219 214 212 213 210 215 213 219 226 234 231 228 217 218 216 214 215 223 235 249 264 279 291 300 306 311 315 317 318 316
222 221 245 262 266 269 257 265 272 261 260 262 264 268 260 260 241 231 223 220 207 207 207 208 213 212 218 225 228 221 215 218 215 217 219 222 229 241 255 270 284 294 300 305 309 313 315 315 314
232 242 223 219 260 253 249 250 258 275 267 269 242 240 261 274 273 232 224 218 203 201 200 205 209 212 217 224 223 219 210 213 216 219 222 226 235 248 262 276 286 294 300 305 309 311 313 313 313
219 233 238 246 247 266 276 270 279 265 263 245 252 257 263 279 274 245 212 212 200 195 197 198 204 208 215 221 220 215 215 215 217 218 221 231 242 254 268 279 289 294 299 304 307 309 311 311 312
242 251 238 233 238 227 259 271 260 264 274 272 271 267 273 283 277 248 208 206 198 196 201 201 203 208 215 220 221 214 212 217 218 220 227 236 248 261 273 283 290 295 300 303 306 308 310 311 310
Height
3150 3151 3152 3154 3160 3153 3152 3152 3150 3151 3152 3150 3152 3154 3156 3155 3159 3162 3158 3159 3159 3159 3159 3159 3159 3159 3158 3157 3156 3155 3153 3151 3150 3148 3146 3145 3144 3142 3142 3141 3141 3141 3140 3140 3140 3140 3141 3141 3141
3147 3149 3151 3151 3154 3150 3148 3149 3149 3148 3149 3149 3150 3152 3154 3156 3155 3155 3156 3157 3158 3159 3159 3159 3159 3158 3157 3157 3156 3154 3153 3151 3149 3147 3146 3144 3143 3142 3141 3141 3140 3140 3140 3140 3140 3140 3140 3140 3140
3144 3146 3149 3150 3147 3146 3147 3146 3148 3146 3148 3149 3150 3151 3151 3152 3153 3154 3155 3156 3157 3158 3159 3159 3158 3157 3157 3157 3156 3154 3153 3152 3150 3148 3145 3143 3142 3142 3141 3140 3140 3139 3139 3139 3140 3139 3139 3139 3139
3141 3144 3145 3144 3142 3143 3143 3144 3143 3145 3147 3147 3147 3149 3150 3150 3152 3153 3155 3156 3157 3158 3158 3158 3159 3156 3156 3156 3155 3154 3152 3151 3150 3148 3146 3143 3142 3141 3140 3140 3140 3140 3140 3139 3139 3138 3138 3138 3138
3137 3138 3141 3138 3137 3141 3139 3141 3142 3143 3144 3145 3146 3147 3148 3148 3150 3151 3152 3154 3155 3156 3156 3156 3157 3156 3155 3155 3154 3154 3152 3151 3149 3148 3147 3145 3142 3141 3141 3141 3140 3140 3140 3139 3138 3138 3137 3137 3136
3132 3135 3135 3133 3134 3135 3135 3138 3139 3140 3141 3143 3144 3145 3146 3146 3147 3149 3150 3152 3153 3152 3153 3155 3155 3154 3154 3154 3153 3153 3152 3150 3149 3148 3146 3145 3144 3142 3141 3141 3140 3140 3140 3139 3138 3137 3136 3136 3135
3127 3128 3128 3130 3131 3131 3131 3133 3135 3136 3138 3140 3140 3144 3143 3144 3145 3147 3148 3149 3151 3151 3151 3152 3152 3152 3152 3152 3152 3152 3151 3150 3149 3148 3146 3146 3144 3144 3143 3142 3141 3140 3140 3140 3139 3137 3137 3136 3134
3122 3123 3125 3124 3126 3125 3127 3129 3131 3131 3134 3134 3137 3141 3143 3140 3142 3144 3145 3147 3148 3149 3149 3150 3150 3149 3150 3150 3150 3150 3150 3149 3148 3147 3146 3145 3144 3143 3143 3142 3141 3141 3140 3139 3138 3137 3136 3134 3133
3116 3119 3117 3119 3122 3123 3123 3124 3126 3127 3129 3131 3133 3134 3135 3136 3139 3140 3141 3143 3144 3145 3146 3147 3148 3148 3148 3148 3148 3148 3148 3147 3147 3147 3146 3145 3144 3143 3142 3141 3140 3140 3139 3138 3136 3135 3134 3133 3131
3110 3112 3111 3114 3117 3117 3119 3119 3121 3123 3124 3127 3129 3130 3130 3132 3134 3135 3137 3139 3140 3141 3142 3143 3145 3145 3146 3145 3146 3146 3146 3146 3145 3145 3144 3143 3143 3142 3141 3140 3139 3138 3137 3136 3135 3133 3132 3131 3129
3103 3104 3109 3106 3109 3111 3113 3113 3116 3118 3118 3122 3125 3125 3126 3128 3130 3132 3133 3134 3135 3137 3138 3139 3140 3141 3143 3143 3142 3143 3143 3144 3144 3143 3143 3142 3141 3140 3139 3138 3137 3136 3135 3134 3132 3131 3130 3128 3126
3098 3100 3100 3102 3103 3105 3107 3107 3108 3110 3114 3118 3117 3119 3121 3123 3126 3127 3128 3129 3130 3132 3133 3135 3136 3138 3138 3139 3139 3140 3140 3141 3141 3141 3140 3140 3139 3138 3137 3136 3135 3134 3133 3131 3131 3129 3127 3125 3123
3094 3096 3095 3097 3098 3099 3099 3099 3100 3101 3107 3109 3112 3113 3116 3118 3121 3123 3124 3125 3126 3128 3129 3131 3131 3133 3133 3136 3134 3137 3136 3137 3137 3138 3138 3137 3137 3136 3135 3134 3132 3131 3130 3129 3128 3126 3124 3121 3119
3090 3090 3091 3092 3093 3092 3092 3093 3093 3096 3101 3100 3103 3106 3109 3112 3115 3117 3119 3120 3121 3123 3124 3125 3127 3128 3129 3130 3131 3131 3132 3132 3133 3134 3134 3133 3133 3132 3131 3131 3130 3129 3127 3125 3124 3122 3120 3117 3114
3086 3087 3086 3088 3088 3086 3087 3082 3082 3091 3093 3092 3096 3098 3101 3103 3107 3110 3113 3115 3116 3117 3118 3120 3121 3123 3124 3125 3127 3127 3127 3128 3128 3129 3129 3129 3129 3128 3127 3127 3126 3125 3124 3122 3120 3118 3115 3113 3110
3083 3083 3083 3083 3084 3083 3082 3076 3081 3083 3083 3084 3086 3089 3091 3094 3098 3102 3106 3108 3110 3111 3112 3113 3115 3117 3119 3120 3121 3122 3123 3123 3124 3124 3124 3124 3124 3124 3123 3122 3121 3121 3120 3118 3116 3114 3111 3108 3105
3079 3080 3080 3080 3079 3078 3077 3073 3074 3077 3076 3078 3079 3079 3081 3084 3088 3092 3095 3099 3103 3104 3105 3107 3109 3111 3112 3113 3115 3116 3117 3118 3118 3118 3118 3119 3119 3119 3118 3118 3117 3117 3116 3114 3112 3110 3107 3104 3102
3076 3076 3076 3076 3076 3073 3070 3065 3068 3068 3070 3069 3070 3072 3073 3073 3077 3081 3086 3089 3092 3096 3098 3100 3102 3104 3105 3106 3108 3109 3111 3112 3113 3112 3112 3113 3114 3114 3113 3113 3113 3113 3112 3110 3107 3106 3103 3101 3098
3071 3072 3072 3072 3070 3067 3063 3056 3059 3060 3058 3058 3061 3062 3063 3065 3068 3070 3074 3078 3081 3085 3090 3093 3095 3097 3098 3099 3102 3103 3105 3106 3106 3106 3107 3107 3108 3109 3109 3109 3110 3109 3107 3105 3103 3102 3099 3097 3094
3067 3067 3067 3067 3065 3063 3058 3041 3048 3049 3048 3050 3051 3053 3053 3056 3058 3062 3065 3068 3072 3077 3080 3084 3087 3090 3091 3093 3095 3097 3098 3099 3099 3100 3101 3102 3102 3103 3104 3105 3105 3105 3103 3101 3100 3097 3095 3093 3090
3062 3063 3064 3064 3062 3058 3054 3034 3038 3038 3037 3039 3038 3040 3043 3044 3047 3050 3055 3058 3062 3065 3071 3075 3079 3082 3083 3087 3089 3090 3091 3092 3093 3093 3095 3096 3097 3099 3100 3101 3101 3100 3099 3098 3096 3093 3090 3087 3085
3059 3058 3057 3058 3059 3056 3053 3037 3031 3032 3030 3030 3031 3033 3034 3034 3035 3039 3043 3047 3050 3056 3061 3065 3071 3074 3076 3079 3082 3084 3086 3087 3088 3088 3089 3091 3093 3094 3095 3097 3097 3097 3095 3093 3091 3089 3086 3082 3079
3054 3052 3053 3054 3055 3053 3045 3050 3019 3025 3023 3023 3025 3026 3026 3025 3025 3026 3031 3036 3041 3047 3051 3057 3062 3065 3069 3072 3076 3077 3078 3079 3081 3083 3084 3086 3088 3090 3092 3092 3092 3092 3090 3089 3086 3083 3080 3076 3073
3049 3049 3050 3050 3050 3045 3028 3037 3019 3019 3019 3017 3015 3018 3018 3016 3015 3017 3019 3024 3029 3035 3041 3048 3054 3058 3062 3065 3067 3070 3072 3074 3075 3077 3079 3082 3084 3086 3088 3088 3088 3087 3085 3083 3080 3077 3074 3070 3066
3045 3047 3046 3045 3043 3028 3026 3024 3006 3013 3013 3013 3014 3012 3009 3007 3006 3007 3009 3013 3018 3025 3032 3040 3046 3051 3055 3058 3060 3063 3066 3068 3070 3073 3076 3078 3080 3082 3083 3083 3083 3081 3079 3077 3074 3071 3067 3062 3058
3037 3041 3039 3031 3022 3019 3022 3011 2994 3003 3004 3005 3005 3005 3002 3000 2999 2999 3002 3005 3009 3017 3025 3033 3039 3045 3049 3052 3055 3056 3059 3063 3066 3069 3071 3074 3076 3078 3079 3079 3078 3076 3073 3071 3068 3064 3059 3055 3050
3034 3033 3036 3033 3025 3023 3015 3001 2998 2993 2996 2997 2999 2996 2995 2992 2993 2994 2996 2998 3003 3010 3019 3028 3034 3039 3043 3046 3048 3050 3053 3058 3061 3064 3067 3070 3072 3073 3074 3073 3072 3070 3067 3065 3061 3056 3052 3046 3042
3029 3031 3032 3030 3020 3007 2996 2995 2988 2989 2991 2990 2990 2989 2988 2987 2986 2987 2990 2993 2998 3005 3013 3020 3026 3033 3038 3041 3043 3046 3049 3053 3057 3060 3064 3066 3068 3068 3069 3068 3066 3064 3061 3057 3053 3048 3044 3039 3033
3022 3021 3021 3021 3014 3003 2994 2983 2982 2983 2985 2986 2984 2984 2982 2982 2980 2980 2983 2989 2992 2999 3006 3013 3020 3026 3031 3036 3039 3041 3046 3049 3053 3056 3059 3061 3063 3063 3063 3062 3060 3058 3054 3050 3045 3041 3036 3030 3024
3015 3013 3012 3010 3003 2997 2995 2971 2980 2980 2981 2980 2979 2979 2977 2975 2974 2974 2979 2984 2988 2995 3002 3008 3015 3021 3027 3031 3035 3039 3042 3046 3049 3053 3055 3057 3058 3058 3057 3056 3053 3050 3046 3042 3037 3032 3027 3021 3015